This is the latest recevied weather packets stored in our database for station/object N5LSN. If no packets are shown the sender has not sent any weather packets the latest 10 day(s).
| Time | Temp. | Humidity | Pressure | Rain* | Wind** | Luminosity | Snow |
|---|---|---|---|---|---|---|---|
| 1777876995 | 14.44° C | 87% | 1015.4 hPa | 0 mm | - | 0 W/m² | - |
| 1777876692 | 14.44° C | 87% | 1015.4 hPa | 0 mm | - | 0 W/m² | - |
| 1777876390 | 14.44° C | 86% | 1015.5 hPa | 0 mm | - | 0 W/m² | - |
| 1777876085 | 14.44° C | 86% | 1015.4 hPa | 0 mm | - | 0 W/m² | - |
| 1777875781 | 14.44° C | 86% | 1015.6 hPa | 0 mm | - | 0 W/m² | - |
| 1777875478 | 14.44° C | 85% | 1015.5 hPa | 0 mm | - | 0 W/m² | - |
| 1777875175 | 15° C | 85% | 1015.5 hPa | 0 mm | - | 0 W/m² | - |
| 1777874872 | 15° C | 84% | 1015.7 hPa | 0 mm | - | 0 W/m² | - |
| 1777874567 | 15.56° C | 82% | 1015.6 hPa | 0 mm | - | 0 W/m² | - |
| 1777874266 | 15.56° C | 81% | 1015.7 hPa | 0 mm | - | 0 W/m² | - |
| 1777873962 | 16.11° C | 80% | 1015.7 hPa | 0 mm | - | 0 W/m² | - |
| 1777873659 | 15.56° C | 82% | 1015.7 hPa | 0 mm | - | 0 W/m² | - |
| 1777873357 | 15° C | 82% | 1015.6 hPa | 0 mm | - | 0 W/m² | - |
| 1777873053 | 15.56° C | 81% | 1015.6 hPa | 0 mm | - | 0 W/m² | - |
| 1777872750 | 15.56° C | 81% | 1015.8 hPa | 0 mm | - | 0 W/m² | - |
| 1777872447 | 15.56° C | 81% | 1015.5 hPa | 0 mm | - | 0 W/m² | - |
| 1777872146 | 15.56° C | 81% | 1015.8 hPa | 0 mm | - | 0 W/m² | - |
| 1777871842 | 15.56° C | 80% | 1015.7 hPa | 0 mm | - | 0 W/m² | - |
| 1777871538 | 16.11° C | 79% | 1015.5 hPa | 0 mm | - | 0 W/m² | - |
| 1777871235 | 16.11° C | 79% | 1015.4 hPa | 0 mm | - | 0 W/m² | - |
| 1777870932 | 16.11° C | 79% | 1015.6 hPa | 0 mm | - | 0 W/m² | - |
| 1777870629 | 16.11° C | 79% | 1015.6 hPa | 0 mm | - | 0 W/m² | - |
| 1777870324 | 16.11° C | 78% | 1015.6 hPa | 0 mm | - | 0 W/m² | - |
| 1777870023 | 16.11° C | 78% | 1015.4 hPa | 0 mm | - | 0 W/m² | - |
| 1777869719 | 16.67° C | 78% | 1015.6 hPa | 0 mm | - | 0 W/m² | - |
* Rain latest hour (hover to see other rain measurements)
** Current wind speed in m/s (hover to see current wind gust speed)